Thursday, October 02, 2014
06:31 UTC
  |  Log In   |  Register Free
Airport Search:

Newnan Coweta County Airport
(KCCO)

Newnan Coweta County Airport Diagram
No Airport Diagram Available

FAA data valid effective September 18, 2014 - November 13, 2014 (unless otherwise noted).

 
 
 
 
 
 
 
 
 
 
 
 
 
 

Current Aviation Weather for Newnan Coweta County Airport (KCCO)

The most recent METAR observation for KCCO was updated at: 0541
METAR Summary (Translated METAR)
KCCO
020515Z AUTO 00000KT 10SM CLR 20/19 A3004 RMK AO2 T01950186
KFFC
020453Z AUTO 00000KT 5SM BR CLR 17/16 A3005 RMK AO2 SLP170 T01670156 403000144
(10.3 nm NE from KCCO)
KLGC
020535Z AUTO 00000KT 10SM CLR 18/18 A3003 RMK AO2 T01800176
(23.7 nm SW from KCCO)
TAF
No TAF information found within 50 nm of KCCO
  Airport Weather Conditions for KCCO

 Current Weather at CCO
66° F
Fair
North winds at 0.0 mph
CCO NOAA Radar

Pressure: 30.04 in
Humidity: 96%
Wind: Calm
Dew Point: 64.9°F
Visibility: 10.00 mi


Airport Weather Forecast for KCCO

Translated METAR and TAF for KCCO
Translated METAR for KCCO (0626 UTC 02 October 2014)
found at http://aviationweather.gov/adds/metars/
 
METAR text: KCCO 020615Z AUTO 00000KT 10SM CLR 18/18 A3004 RMK AO2 T01830181
Conditions at: KCCO (NEWNAN , GA, US) observed 0615 UTC 02 October 2014
Temperature: 18.3°C (65°F)
Dewpoint: 18.1°C (65°F) [RH = 99%]
Pressure (altimeter): 30.04 inches Hg (1017.4 mb)
Winds: calm
Visibility: 10 or more miles (16+ km)
Ceiling: at least 12,000 feet AGL
Clouds: sky clear below 12,000 feet AGL
Weather: automated observation with no human augmentation;
there may or may not be significant weather present at this time
Translated TAF for KCCO

There is no translated TAF available for this airport

Find All Airport Services Find A Hotel Find A Rental Car Find A Golf Course Find A Restaurant $100 Hamburger



FBO's on the Field
FBO Company Facility Photos Services Transportation Aviation Fuel Prices: Prices include tax
Catering Weather Repair Courtesy Rental Type 100LL JetA JetA+ MOGAS 8087
 
CCO Airport Services

This FBO has not yet been rated
FS:Shell
Last Updated: Sep-02
Login to update fuel prices
SS:
Contact CCO Airport ServicesMore FBO Information
 
Add another FBO Facility Photos Catering Weather Repair Courtesy Rental Type 100LL JetA JetA+ MOGAS 8087
Services Transportation Aviation Fuel Prices: Prices include tax


model-print
model-print
model-print
model-print